Regional Weather Roundup
Issued by NWS

Home | Current Version | Previous Version | Text Only | Print | Product List | Glossary Off
Versions: 1 2 3 4 5 6 7 8 9 10 11 12 13 14 15 16 17 18 19 20 21 22 23 24 25 26 27 28 29 30 31 32 33 34 35 36 37 38 39 40 41 42 43 44 45 46 47 48 49 50

954
ASUS43 KDMX 300206
RWRIA

WEATHER ROUNDUP FOR IOWA
NATIONAL WEATHER SERVICE DES MOINES IA
900 PM CDT SAT APR 29 2017

NOTE: "FAIR" INDICATES FEW OR NO CLOUDS BELOW 12,000 FEET WITH NO
SIGNIFICANT WEATHER AND/OR OBSTRUCTIONS TO VISIBILITY.

* - THESE STATIONS ARE NOT NWS STATIONS...THUS NOT UNDER NWS
QUALITY CONTROL.  THEY ALSO DO NOT REPORT WEATHER SUCH
AS PRECIPITATION OR FOG.

IAZ001>003-012>014-020>022-031>034-043>046-300300-
   NORTHWEST IOWA

CITY           SKY/WX    TMP DP  RH WIND       PRES   REMARKS
CARROLL *      CLOUDY    45  34  65 NE18      30.03F
CHEROKEE *     CLOUDY    47  29  50 NE12G17   30.10S
DENISON *      CLOUDY    43  34  70 NE23G37   30.06F
LE MARS *      CLOUDY    48  28  46 NE14      30.11S
ORANGE CITY *  CLOUDY    46  28  49 E13G18    30.10F
SHELDON *      CLOUDY    46  28  49 NE12      30.11R
SIOUX CITY     CLOUDY    48  29  47 NE21G36   30.08S
SPENCER        CLOUDY    47  29  49 NE15      30.11R
STORM LAKE *   CLOUDY    45  30  57 E15G24    30.09R
$$

IAZ055>058-069>071-079>083-090>094-300300-
   SOUTHWEST IOWA

CITY           SKY/WX    TMP DP  RH WIND       PRES   REMARKS
ATLANTIC *     CLOUDY    43  37  81 NE20G25   29.99R
AUDUBON *      CLOUDY    43  36  75 NE15      30.03S
CLARINDA *     CLOUDY    41  41 100 NE17G30   29.97R FOG
COUNCIL BLFS * CLOUDY    41  41 100 NE18G30   30.00S
CRESTON *      CLOUDY    39  39 100 NE23G31   29.96R FOG     WCI  29
HARLAN  *      CLOUDY    43  36  75 NE17G28   30.04S
LAMONI         CLOUDY    41  40  96 NE16G29   29.89F
RED OAK *      LGT RAIN  41  39  93 NE17G26   29.98R
SHENANDOAH *   MIX PCPN  41  41 100 NE17G31   29.98R
$$

IAZ047>049-059>061-072>074-084-300300-
   CENTRAL IOWA

CITY           SKY/WX    TMP DP  RH WIND       PRES   REMARKS
AMES           CLOUDY    44  37  76 NE12G23   30.04R
ANKENY *       MIX PCPN  41  37  87 NE16G22   30.04S
BOONE *        CLOUDY    43  36  75 NE17G24   30.03R
CHARITON *     LGT RAIN  41  39  93 NE15      29.97S
DES MOINES     LGT RAIN  42  39  89 NE16G22   30.02R FOG
GRINNELL*      CLOUDY    40  38  90 NE16G24   30.03R WCI  32
KNOXVILLE *    LGT RAIN  41  39  93 NE18      29.98R
MARSHALLTOWN   CLOUDY    42  36  79 NE17      30.04R
NEWTON *       CLOUDY    41  37  87 NE17      30.00R FOG
PELLA *        DRIZZLE   40  39  96 NE7       30.00S
PERRY *        CLOUDY    43  36  76 NE14G24   30.03S
$$

IAZ004>006-015-016-023>025-035-036-300300-
   NORTH CENTRAL IOWA

CITY           SKY/WX    TMP DP  RH WIND       PRES   REMARKS
ALGONA *       CLOUDY    46  32  57 NE14G22   30.10S
CLARION *      CLOUDY    45  32  61 NE16      30.07F
ESTHERVILLE    CLOUDY    46  31  55 NE15      30.13R
FORT DODGE *   CLOUDY    45  30  57 NE9G16    30.08R
MASON CITY     CLOUDY    46  29  51 NE13      30.11R
FOREST CITY *  CLOUDY    46  25  42 NE10G18   30.10S
WEBSTER CITY * CLOUDY    45  32  61 NE16      30.04S
IOWA FALLS *   CLOUDY    45  34  65 NE15      30.07R
$$

IAZ007>011-017>019-026>030-037>042-050>054-066-300300-
   NORTHEAST IOWA

CITY           SKY/WX    TMP DP  RH WIND       PRES   REMARKS
CEDAR RAPIDS   CLOUDY    41  39  93 NE22G29   29.98F
CHARLES CITY * CLOUDY    46  28  49 NE16G23   30.08F
CLINTON *      CLOUDY    42  38  85 NE23G30   30.02R
DECORAH *      CLOUDY    45  30  57 E18       30.08F
DUBUQUE        CLOUDY    40  34  79 NE21G31   30.04R WCI  30
MONTICELLO *   CLOUDY    43  36  75 NE16G24   30.02S
OELWEIN *      CLOUDY    41  36  81 NE22G28   30.05F
WATERLOO       CLOUDY    43  34  70 NE16      30.06F
$$

IAZ064-065-067-068-078-300300-
   EAST CENTRAL IOWA

CITY           SKY/WX    TMP DP  RH WIND       PRES   REMARKS
DAVENPORT      CLOUDY    41  37  86 NE22G31   30.01R
IOWA CITY      CLOUDY    43  37  79 NE17G25   29.97F
MT. PLEASANT * CLOUDY    41  40  97 NE16G24   29.95F
MUSCATINE *    CLOUDY    43  39  87 NE15G26   29.98F
QUAD CITIES    CLOUDY    42  38  85 NE16      30.00R
$$

IAZ062-063-075>077-085>089-095>099-300300-
   SOUTHEAST IOWA

CITY           SKY/WX    TMP DP  RH WIND       PRES   REMARKS
BURLINGTON     CLOUDY    42  41  96 NE17      29.94F
FAIRFIELD *    CLOUDY    41  39  93 NE17G26   29.97F FOG
FORT MADISON * CLOUDY    43  41  93 NE15      29.95F
KEOKUK *       CLOUDY    43  41  93 NE14      29.93F
OSKALOOSA *    LGT RAIN  40  39  96 NE16      29.99R WCI  32
CENTERVILLE *  CLOUDY    39  39 100 NE13G21   29.95S WCI  32
OTTUMWA        LGT RAIN  42  40  92 NE22G30   29.97R FOG
WASHINGTON *   CLOUDY    41  39  93 NE20G28   29.97F FOG
$$

ABBREVIATIONS USED IN REMARKS
   TC - TEMPERATURES IN CELSIUS
  WCI - WIND CHILL INDEX
   HX - HEAT INDEX
  VSB - VISIBILITY
$$





USA.gov is the U.S. government's official web portal to all federal, state and local government web resources and services.